N4TLC Weather Reports


Display with metric or nautical units.
time (UTC)temp
F
wind
direction
speed
MPH
gust
MPH
rain 1hr
in
rain 24hr
in
rain mn
in
humidity
%
barometer
mb
20260504171246 72 279 6.0 6.0 0.00 0.00 0.00 35 1017.2
20260504170743 73 190 3.0 4.0 0.00 0.00 0.00 34 1017.6
20260504170241 72 322 1.0 4.0 0.00 0.00 0.00 34 1018.0
20260504160159 70 281 3.0 6.0 0.00 0.00 0.00 34 1018.8
20260504151127 68 188 1.0 4.0 0.00 0.00 0.00 39 1019.1
20260504150624 67 164 2.0 4.0 0.00 0.00 0.00 40 1019.1
20260504150121 67 278 3.0 4.0 0.00 0.00 0.00 38 1019.0
20260504141049 63 313 0.0 2.0 0.00 0.00 0.00 51 1018.9
20260504140546 62 180 0.0 2.0 0.00 0.00 0.00 53 1018.9
20260504130510 57 162 1.0 2.0 0.00 0.00 0.00 61 1018.8
20260504110358 42 98 2.0 2.0 0.00 0.00 0.00 91 1019.0
20260504100315 43 119 0.0 2.0 0.00 0.00 0.00 88 1019.0
20260504081708 42 110 2.0 2.0 0.00 0.00 0.00 82 1018.7
20260504081205 43 106 1.0 2.0 0.00 0.00 0.00 81 1018.6
20260504080701 43 96 1.0 2.0 0.00 0.00 0.00 81 1018.7
20260504080157 43 94 2.0 2.0 0.00 0.00 0.00 81 1018.5
20260504070125 45 73 0.0 1.0 0.00 0.00 0.00 75 1018.4
20260504050514 49 117 2.0 2.0 0.00 0.00 0.00 62 1019.0
20260504050011 49 127 2.0 2.0 0.00 0.00 0.00 60 1019.1
20260504045508 50 119 2.0 3.0 0.00 0.00 0.00 58 1019.0
20260504045003 50 121 2.0 3.0 0.00 0.00 0.00 57 1019.1
20260504044501 50 121 2.0 3.0 0.00 0.00 0.00 56 1018.8
20260504043958 50 120 2.0 3.0 0.00 0.00 0.00 56 1018.8
20260504043455 49 110 2.0 3.0 0.00 0.00 0.00 57 1018.7
20260504042952 49 107 1.0 2.0 0.00 0.00 0.00 59 1018.7
20260504042449 49 114 2.0 2.0 0.00 0.00 0.00 57 1018.8
20260504041945 48 108 1.0 2.0 0.00 0.00 0.00 58 1018.8
20260504041441 49 114 1.0 2.0 0.00 0.00 0.00 58 1018.9
20260504040937 49 117 2.0 2.0 0.00 0.00 0.00 60 1019.0
20260504040436 49 123 1.0 2.0 0.00 0.00 0.00 59 1018.9
20260504035931 49 105 2.0 2.0 0.00 0.00 0.00 58 1018.9
20260504035429 50 123 2.0 3.0 0.00 0.00 0.00 58 1018.7
20260504034925 49 121 2.0 3.0 0.00 0.00 0.00 58 1018.8
20260504034423 49 109 2.0 2.0 0.00 0.00 0.00 58 1018.8
20260504033920 49 113 2.0 2.0 0.00 0.00 0.00 59 1018.9
20260504033418 49 110 2.0 2.0 0.00 0.00 0.00 59 1018.9
20260504032914 49 115 2.0 2.0 0.00 0.00 0.00 58 1018.9
20260504032411 49 124 2.0 2.0 0.00 0.00 0.00 58 1018.9
20260504031908 49 116 2.0 2.0 0.00 0.00 0.00 57 1018.8
20260504031405 49 121 2.0 2.0 0.00 0.00 0.00 59 1018.9
20260504030901 49 115 2.0 2.0 0.00 0.00 0.00 59 1019.1
20260504030359 49 130 2.0 2.0 0.00 0.00 0.00 59 1018.9
20260504025854 49 113 1.0 2.0 0.00 0.00 0.00 58 1018.9
20260504025352 49 104 1.0 2.0 0.00 0.00 0.00 58 1019.0
20260504024849 49 112 1.0 2.0 0.00 0.00 0.00 57 1018.9
20260504024345 49 113 1.0 2.0 0.00 0.00 0.00 57 1018.8
20260504023842 50 109 1.0 2.0 0.00 0.00 0.00 57 1018.8
20260504023339 50 105 1.0 2.0 0.00 0.00 0.00 57 1018.8
20260504022834 50 102 1.0 2.0 0.00 0.00 0.00 56 1018.6
20260504022331 50 111 2.0 2.0 0.00 0.00 0.00 56 1018.7
20260504021828 50 114 1.0 2.0 0.00 0.00 0.00 54 1018.8
20260504021325 51 97 1.0 2.0 0.00 0.00 0.00 53 1018.4
20260504020822 51 102 2.0 2.0 0.00 0.00 0.00 54 1018.5
20260504020319 51 113 2.0 3.0 0.00 0.00 0.00 54 1018.4
20260504015815 51 115 2.0 2.0 0.00 0.00 0.00 54 1018.4
20260504015311 51 103 1.0 2.0 0.00 0.00 0.00 53 1018.1
20260504014808 51 107 1.0 2.0 0.00 0.00 0.00 52 1018.1
20260504014303 52 102 2.0 2.0 0.00 0.00 0.00 53 1017.9
20260504013801 52 115 2.0 2.0 0.00 0.00 0.00 53 1018.2
20260504013259 52 119 2.0 2.0 0.00 0.00 0.00 53 1018.1
20260504012755 52 113 1.0 2.0 0.00 0.00 0.00 52 1018.2
20260504012253 53 94 1.0 2.0 0.00 0.00 0.00 51 1018.1
20260504011750 53 103 2.0 2.0 0.00 0.00 0.00 51 1018.1
20260504011247 53 106 1.0 2.0 0.00 0.00 0.00 49 1018.2
20260504010743 54 121 2.0 2.0 0.00 0.00 0.00 49 1018.0
20260504010238 54 105 1.0 2.0 0.00 0.00 0.00 48 1018.0
20260504005735 55 118 2.0 2.0 0.00 0.00 0.00 48 1018.0
20260504005233 55 107 1.0 2.0 0.00 0.00 0.00 47 1017.9
20260504004730 55 98 1.0 2.0 0.00 0.00 0.00 46 1018.0
20260504004227 56 123 1.0 2.0 0.00 0.00 0.00 46 1018.0
20260504003723 57 118 1.0 1.0 0.00 0.00 0.00 45 1017.8
20260504003221 57 120 0.0 2.0 0.00 0.00 0.00 43 1017.6
20260504002717 58 125 2.0 2.0 0.00 0.00 0.00 43 1017.7
20260504002214 59 121 2.0 2.0 0.00 0.00 0.00 41 1017.7
20260504001712 59 127 2.0 2.0 0.00 0.00 0.00 40 1017.6
20260504001209 60 123 2.0 2.0 0.00 0.00 0.00 39 1017.6
20260504000705 60 121 2.0 3.0 0.00 0.00 0.00 37 1017.6
20260504000204 61 122 2.0 2.0 0.00 0.00 0.00 36 1017.6
20260503235701 62 113 2.0 3.0 0.00 0.00 0.00 34 1017.4
20260503235157 63 140 1.0 2.0 0.00 0.00 0.00 33 1017.4
20260503234655 63 134 2.0 2.0 0.00 0.00 0.00 31 1017.5
20260503234153 64 139 1.0 2.0 0.00 0.00 0.00 30 1017.6
20260503233649 65 150 1.0 2.0 0.00 0.00 0.00 29 1017.5
20260503233145 67 150 1.0 2.0 0.00 0.00 0.00 28 1017.5
20260503232642 67 146 0.0 2.0 0.00 0.00 0.00 27 1017.4
20260503232140 67 154 2.0 2.0 0.00 0.00 0.00 27 1017.6
20260503231638 67 152 1.0 2.0 0.00 0.00 0.00 27 1017.4
20260503231134 68 167 2.0 3.0 0.00 0.00 0.00 26 1017.5
20260503230631 69 177 0.0 2.0 0.00 0.00 0.00 25 1017.6
20260503230128 69 142 2.0 2.0 0.00 0.00 0.00 26 1017.4
20260503225626 69 172 1.0 2.0 0.00 0.00 0.00 26 1017.5
20260503225125 69 159 1.0 2.0 0.00 0.00 0.00 25 1017.6
20260503224623 68 188 0.0 2.0 0.00 0.00 0.00 25 1017.5
20260503224121 68 159 4.0 4.0 0.00 0.00 0.00 24 1017.5
20260503223618 68 159 2.0 3.0 0.00 0.00 0.00 25 1017.7
20260503223114 68 316 1.0 2.0 0.00 0.00 0.00 24 1017.7
20260503222612 68 166 2.0 3.0 0.00 0.00 0.00 24 1017.7
20260503222110 69 308 3.0 4.0 0.00 0.00 0.00 23 1017.7
20260503221608 68 159 0.0 3.0 0.00 0.00 0.00 24 1017.8
20260503221105 68 180 2.0 3.0 0.00 0.00 0.00 24 1018.0
20260503220601 68 179 2.0 2.0 0.00 0.00 0.00 25 1018.0
20260503220058 67 161 1.0 5.0 0.00 0.00 0.00 25 1018.1
20260503215555 68 137 2.0 4.0 0.00 0.00 0.00 24 1018.0
20260503215052 67 156 2.0 5.0 0.00 0.00 0.00 24 1018.1
20260503214550 68 163 2.0 9.0 0.00 0.00 0.00 23 1018.4
20260503214046 67 278 6.0 6.0 0.00 0.00 0.00 23 1018.2
20260503213545 68 173 3.0 3.0 0.00 0.00 0.00 23 1018.2
20260503213041 68 17 1.0 3.0 0.00 0.00 0.00 22 1018.4
20260503212539 68 253 2.0 4.0 0.00 0.00 0.00 23 1018.4
20260503212036 67 349 2.0 5.0 0.00 0.00 0.00 24 1018.5
20260503211533 67 1 3.0 7.0 0.00 0.00 0.00 24 1018.5
20260503211028 67 307 2.0 5.0 0.00 0.00 0.00 24 1018.5
20260503210525 67 214 2.0 3.0 0.00 0.00 0.00 24 1018.4
20260503210021 66 252 3.0 4.0 0.00 0.00 0.00 24 1018.4
20260503205518 66 107 2.0 10.0 0.00 0.00 0.00 24 1018.6
20260503205014 66 278 2.0 11.0 0.00 0.00 0.00 24 1018.5
20260503204512 66 12 1.0 10.0 0.00 0.00 0.00 24 1018.5
20260503204008 66 272 4.0 7.0 0.00 0.00 0.00 24 1018.5
20260503203506 66 193 2.0 5.0 0.00 0.00 0.00 23 1018.6
20260503203002 66 332 2.0 8.0 0.00 0.00 0.00 23 1018.6
20260503202500 66 180 0.0 3.0 0.00 0.00 0.00 25 1018.7
20260503201958 65 188 1.0 4.0 0.00 0.00 0.00 24 1018.9
20260503201456 66 347 2.0 5.0 0.00 0.00 0.00 23 1019.0
20260503200953 66 252 4.0 8.0 0.00 0.00 0.00 22 1019.2
20260503200449 66 163 1.0 3.0 0.00 0.00 0.00 24 1019.1
20260503195946 66 165 4.0 4.0 0.00 0.00 0.00 23 1019.1
20260503195443 65 178 2.0 4.0 0.00 0.00 0.00 24 1019.2
20260503194939 64 250 4.0 7.0 0.00 0.00 0.00 25 1019.4
20260503194437 66 313 1.0 4.0 0.00 0.00 0.00 24 1019.4
20260503193932 65 220 2.0 3.0 0.00 0.00 0.00 25 1019.2
20260503193428 64 305 3.0 7.0 0.00 0.00 0.00 25 1019.4
20260503192923 64 258 4.0 4.0 0.00 0.00 0.00 25 1019.5
20260503192420 64 143 2.0 5.0 0.00 0.00 0.00 24 1019.5
20260503191916 64 27 3.0 4.0 0.00 0.00 0.00 24 1019.5
20260503191414 63 343 5.0 5.0 0.00 0.00 0.00 25 1019.7
20260503190910 63 251 4.0 5.0 0.00 0.00 0.00 25 1019.8
20260503190407 62 53 5.0 6.0 0.00 0.00 0.00 26 1019.7
20260503185903 62 153 2.0 9.0 0.00 0.00 0.00 26 1020.0
20260503185400 62 16 2.0 6.0 0.00 0.00 0.00 27 1020.0
20260503184859 62 298 4.0 6.0 0.00 0.00 0.00 26 1020.1
20260503184356 62 115 1.0 4.0 0.00 0.00 0.00 25 1020.0
20260503183852 61 225 1.0 3.0 0.00 0.00 0.00 28 1020.2
20260503183349 61 272 5.0 6.0 0.00 0.00 0.00 27 1020.2
20260503182847 62 176 0.0 5.0 0.00 0.00 0.00 26 1020.1
20260503182346 62 125 2.0 4.0 0.00 0.00 0.00 28 1020.1
20260503181842 62 345 4.0 4.0 0.00 0.00 0.00 25 1020.4
20260503181339 62 8 0.0 3.0 0.00 0.00 0.00 29 1020.5
20260503180836 60 159 2.0 3.0 0.00 0.00 0.00 29 1020.5
20260503180334 60 285 0.0 5.0 0.00 0.00 0.00 27 1020.6
20260503175830 61 341 6.0 9.0 0.00 0.00 0.00 28 1020.6
20260503175329 59 138 4.0 6.0 0.00 0.00 0.00 28 1020.6
20260503174829 60 350 2.0 3.0 0.00 0.00 0.00 28 1020.6
20260503174327 59 160 0.0 5.0 0.00 0.00 0.00 28 1020.6
20260503173823 59 155 2.0 3.0 0.00 0.00 0.00 28 1020.7
20260503173319 59 343 4.0 10.0 0.00 0.00 0.00 28 1020.8
20260503172816 59 242 1.0 8.0 0.00 0.00 0.00 28 1020.5
20260503172314 58 329 3.0 4.0 0.00 0.00 0.00 31 1020.7
20260503171809 58 330 2.0 6.0 0.00 0.00 0.00 33 1021.0